Weather History for Pampa / Mesa Vista, TX

Change the Weather History Date:

Thursday, January 31, 2013

  Actual Average (KBGD) Record (KBGD)
Temperature  
Mean Temperature 38 °F 40 °F  
Max Temperature 55 °F 53 °F 78 °F (1963)
Min Temperature 21 °F 27 °F 0 °F (1985)
Degree Days  
Heating Degree Days 27 25  
Month to date heating degree days 816  
Since 1 July heating degree days 2352  
Cooling Degree Days 0 0  
Month to date cooling degree days 0  
Year to date cooling degree days 0  
Moisture  
Dew Point 21 °F    
Average Humidity 57    
Maximum Humidity 86    
Minimum Humidity 23    
Precipitation  
Precipitation 0.00 in 0.02 in 0.45 in (1983)
Month to date precipitation 0.59  
Year to date precipitation 0.59  
Snow  
Snow 0.00 in - 7.30 in (2002)
Month to date snowfall  
Since 1 July snowfall  
Snow Depth -    
Sea Level Pressure  
Sea Level Pressure 30.12 in    
Wind  
Wind Speed 7 mph (SSE)    
Max Wind Speed 18 mph    
Max Gust Speed 23 mph    
Visibility 10 miles    
Events      
T = Trace of Precipitation, MM = Missing Value Source: NWS Daily Summary

Daily Weather History Graph

Daily Weather History Graph

Search for Another Location

Airport:

Trip Planner

Search our weather history database for the weather conditions in past years. The results will help you decide how hot, cold, wet, or windy it might be!

Date:

Astronomy

Jan. 31, 2013 Rise Set
Actual Time 7:45 AM CST 6:10 PM CST
Civil Twilight 7:18 AM CST 6:37 PM CST
Nautical Twilight 6:47 AM CST 7:08 PM CST
Astronomical Twilight 6:17 AM CST 7:38 PM CST
Moon 11:02 PM CST (1/31) 9:56 AM CST (1/31)
Length of Visible Light 11h 19m
Length of Day
10h 25m
Waning Gibbous, 79% of the Moon is Illuminated
Jan 31
Waning Gibbous
Feb 3
Last Quarter
Feb 10
New
Feb 17
First Quarter
Feb 25
Full

Hourly Weather History & Observations

Time (CST) Temp. Windchill Dew Point Humidity Pressure Visibility Wind Dir Wind Speed Gust Speed Precip Events Conditions
12:15 AM 26.6 °F - 17.6 °F 69% 30.01 in 10.0 mi Calm Calm - N/A   Clear
12:35 AM 30.2 °F 25.4 °F 19.4 °F 64% 30.01 in 10.0 mi West 4.6 mph - N/A   Clear
12:55 AM 26.6 °F - 17.6 °F 69% 30.00 in 10.0 mi Calm Calm - N/A   Clear
1:15 AM 28.4 °F 20.4 °F 17.6 °F 64% 30.00 in 10.0 mi SW 8.1 mph - N/A   Clear
1:35 AM 26.6 °F 17.5 °F 17.6 °F 69% 29.99 in 10.0 mi SW 9.2 mph - N/A   Clear
1:55 AM 30.2 °F 23.4 °F 19.4 °F 64% 29.99 in 10.0 mi SW 6.9 mph - N/A   Clear
2:15 AM 30.2 °F 26.7 °F 19.4 °F 64% 30.00 in 10.0 mi SW 3.5 mph - N/A   Clear
2:35 AM 23.0 °F - 17.6 °F 80% 30.00 in 10.0 mi Calm Calm - N/A   Clear
2:55 AM 21.2 °F - 17.6 °F 86% 30.01 in 10.0 mi Calm Calm - N/A   Clear
3:15 AM 23.0 °F 17.0 °F 17.6 °F 80% 30.00 in 10.0 mi SW 4.6 mph - N/A   Clear
3:35 AM 23.0 °F 13.9 °F 17.6 °F 80% 30.00 in 10.0 mi SW 8.1 mph - N/A   Clear
3:55 AM 24.8 °F 16.9 °F 19.4 °F 80% 30.00 in 10.0 mi WSW 6.9 mph - N/A   Clear
4:15 AM 24.8 °F 16.1 °F 19.4 °F 80% 29.99 in 10.0 mi SW 8.1 mph - N/A   Clear
4:35 AM 23.0 °F 14.7 °F 19.4 °F 86% 30.00 in 10.0 mi WSW 6.9 mph - N/A   Clear
4:55 AM 23.0 °F 13.1 °F 19.4 °F 86% 29.99 in 10.0 mi WSW 9.2 mph - N/A   Clear
5:15 AM 23.0 °F 13.1 °F 19.4 °F 86% 29.99 in 10.0 mi SW 9.2 mph - N/A   Clear
5:35 AM 26.6 °F 17.5 °F 21.2 °F 80% 29.99 in 10.0 mi SW 9.2 mph - N/A   Clear
5:55 AM 26.6 °F 17.5 °F 21.2 °F 80% 30.00 in 10.0 mi WSW 9.2 mph - N/A   Clear
6:15 AM 28.4 °F 20.4 °F 21.2 °F 74% 30.01 in 10.0 mi WSW 8.1 mph - N/A   Clear
6:55 AM 28.4 °F 20.4 °F 21.2 °F 74% 30.01 in 10.0 mi SW 8.1 mph - N/A   Clear
7:15 AM 28.4 °F 19.7 °F 23.0 °F 80% 30.03 in 10.0 mi WSW 9.2 mph - N/A   Clear
7:35 AM 28.4 °F 18.5 °F 21.2 °F 74% 30.03 in 10.0 mi WSW 11.5 mph - N/A   Clear
7:55 AM 28.4 °F 19.1 °F 21.2 °F 74% 30.04 in 10.0 mi WSW 10.4 mph - N/A   Clear
8:15 AM 30.2 °F 21.9 °F 23.0 °F 75% 30.04 in 10.0 mi WSW 9.2 mph - N/A   Clear
8:35 AM 32.0 °F 24.2 °F 23.0 °F 69% 30.06 in 10.0 mi WSW 9.2 mph - N/A   Clear
9:15 AM 33.8 °F 24.8 °F 23.0 °F 65% 30.07 in 10.0 mi WSW 12.7 mph - N/A   Clear
9:35 AM 35.6 °F 27.1 °F 21.2 °F 56% 30.07 in 10.0 mi SW 12.7 mph - N/A   Clear
9:55 AM 39.2 °F 33.6 °F 21.2 °F 49% 30.09 in 10.0 mi West 8.1 mph - N/A   Clear
10:15 AM 41.0 °F 35.2 °F 21.2 °F 45% 30.10 in 10.0 mi WSW 9.2 mph - N/A   Clear
10:35 AM 42.8 °F 38.0 °F 21.2 °F 42% 30.11 in 10.0 mi WSW 8.1 mph - N/A   Clear
10:55 AM 44.6 °F 40.7 °F 21.2 °F 39% 30.10 in 10.0 mi WSW 6.9 mph - N/A   Clear
11:15 AM 46.4 °F 42.4 °F 21.2 °F 37% 30.10 in 10.0 mi SW 8.1 mph - N/A   Clear
11:35 AM 50.0 °F - 21.2 °F 32% 30.11 in 10.0 mi WNW 5.8 mph - N/A   Clear
11:55 AM 51.8 °F - 23.0 °F 33% 30.10 in 10.0 mi Calm Calm - N/A   Clear
12:15 PM 55.4 °F - 21.2 °F 26% 30.10 in 10.0 mi North 4.6 mph - N/A   Clear
12:35 PM 55.4 °F - 17.6 °F 23% 30.11 in 10.0 mi NNW 18.4 mph 23.0 mph N/A   Clear
12:55 PM 55.4 °F - 17.6 °F 23% 30.10 in 10.0 mi North 13.8 mph - N/A   Clear
1:15 PM 55.4 °F - 19.4 °F 25% 30.11 in 10.0 mi North 15.0 mph 20.7 mph N/A   Clear
1:35 PM 55.4 °F - 19.4 °F 25% 30.10 in 10.0 mi North 16.1 mph - N/A   Clear
1:55 PM 55.4 °F - 19.4 °F 25% 30.11 in 10.0 mi North 15.0 mph 19.6 mph N/A   Clear
2:15 PM 53.6 °F - 19.4 °F 26% 30.11 in 10.0 mi North 15.0 mph 23.0 mph N/A   Clear
2:35 PM 53.6 °F - 21.2 °F 28% 30.12 in 10.0 mi NNE 15.0 mph 18.4 mph N/A   Clear
3:15 PM 53.6 °F - 19.4 °F 26% 30.14 in 10.0 mi NE 15.0 mph 23.0 mph N/A   Clear
3:35 PM 51.8 °F - 19.4 °F 28% 30.14 in 10.0 mi NNE 15.0 mph 23.0 mph N/A   Clear
3:55 PM 51.8 °F - 21.2 °F 30% 30.16 in 10.0 mi NE 16.1 mph 21.9 mph N/A   Clear
4:15 PM 51.8 °F - 21.2 °F 30% 30.17 in 10.0 mi NE 11.5 mph 19.6 mph N/A   Clear
4:35 PM 50.0 °F - 21.2 °F 32% 30.18 in 10.0 mi ENE 11.5 mph - N/A   Clear
4:55 PM 50.0 °F - 21.2 °F 32% 30.19 in 10.0 mi ENE 15.0 mph - N/A   Clear
5:15 PM 50.0 °F - 23.0 °F 35% 30.20 in 10.0 mi ENE 12.7 mph 16.1 mph N/A   Clear
5:35 PM 48.2 °F - 23.0 °F 37% 30.20 in 10.0 mi ENE 12.7 mph 17.3 mph N/A   Clear
5:55 PM 46.4 °F 40.7 °F 23.0 °F 40% 30.21 in 10.0 mi ENE 12.7 mph - N/A   Clear
6:15 PM 44.6 °F 40.7 °F 24.8 °F 46% 30.22 in 10.0 mi ENE 6.9 mph - N/A   Clear
6:35 PM 41.0 °F 36.4 °F 24.8 °F 53% 30.23 in 10.0 mi ENE 6.9 mph - N/A   Clear
6:55 PM 37.4 °F 32.1 °F 23.0 °F 56% 30.24 in 10.0 mi East 6.9 mph - N/A   Clear
7:15 PM 35.6 °F 29.2 °F 24.8 °F 65% 30.25 in 10.0 mi East 8.1 mph - N/A   Clear
7:35 PM 37.4 °F 29.8 °F 26.6 °F 65% 30.25 in 10.0 mi East 11.5 mph - N/A   Clear
7:55 PM 37.4 °F 29.3 °F 26.6 °F 65% 30.26 in 10.0 mi East 12.7 mph - N/A   Clear
8:15 PM 35.6 °F 27.5 °F 24.8 °F 65% 30.26 in 10.0 mi East 11.5 mph - N/A   Clear
8:35 PM 35.6 °F 28.0 °F 24.8 °F 65% 30.26 in 10.0 mi East 10.4 mph - N/A   Clear
8:55 PM 33.8 °F 26.4 °F 24.8 °F 70% 30.26 in 10.0 mi East 9.2 mph - N/A   Clear
9:15 PM 33.8 °F 26.4 °F 23.0 °F 65% 30.26 in 10.0 mi East 9.2 mph - N/A   Clear
9:35 PM 32.0 °F 24.8 °F 23.0 °F 69% 30.25 in 10.0 mi East 8.1 mph - N/A   Clear
9:55 PM 32.0 °F 25.6 °F 23.0 °F 69% 30.25 in 10.0 mi East 6.9 mph - N/A   Clear
10:15 PM 32.0 °F 22.5 °F 24.8 °F 75% 30.26 in 10.0 mi East 12.7 mph - N/A   Clear
10:35 PM 32.0 °F 24.2 °F 23.0 °F 69% 30.26 in 10.0 mi East 9.2 mph - N/A   Clear
10:55 PM 30.2 °F 22.6 °F 23.0 °F 75% 30.28 in 10.0 mi ESE 8.1 mph 17.3 mph N/A   Clear
11:15 PM 30.2 °F 22.6 °F 21.2 °F 69% 30.28 in 10.0 mi ESE 8.1 mph - N/A   Clear
11:35 PM 28.4 °F 21.2 °F 21.2 °F 74% 30.29 in 10.0 mi ESE 6.9 mph - N/A   Clear
11:55 PM 28.4 °F 20.4 °F 21.2 °F 74% 30.29 in 10.0 mi ESE 8.1 mph - N/A   Clear